weather.gov     
National Weather Service

Regional Weather Roundup
NWS Homepage
This page is being discontinued on March 12, 2014.
The same data is available at this site. Please update your bookmarks.
Thank you, and we apologize for the inconvenience.
Please send an email to SR-SRH.Webmaster@noaa.gov with any concerns.


Current Version
Previous Version:    01  02  03  04  05  06  07  08  09  10  11  12  13  14  15  16  17  18  19  20  21  22  23  24  25  26  27  28  29  30  
   31  32  33  34  35  36  37  38  39  40  41  42  43  44  45  46  47  48  49  50  51  52  53  54  55  56  57  58  59  60  
[Printable]
106
ASUS44 KSJT 020610
RWRSJT
WEST CENTRAL TEXAS REGIONAL WEATHER ROUNDUP
NATIONAL WEATHER SERVICE SAN ANGELO TX
100 AM CDT THU OCT 02 2014

NOTE: "FAIR" INDICATES FEW OR NO CLOUDS BELOW 12,000 FEET WITH NO
SIGNIFICANT WEATHER AND/OR OBSTRUCTIONS TO VISIBILITY.

TXZ049-054-064>066-071>073-076>078-098-099-113-114-127-128-139-140-
154-155-168>170-020700
...LOCATIONS ACROSS WEST CENTRAL TEXAS...

CITY           SKY/WX    TMP DP  RH WIND       PRES   REMARKS
SAN ANGELO     CLEAR     79  64  60 S14       29.80F
ABILENE        CLEAR     81  63  54 S16       29.79R
DYESS AFB      CLEAR     81  65  57 S18G26    29.77S
JUNCTION       CLEAR     77  66  68 S7        29.84F
SWEETWATER     CLEAR     78  63  60 S12       29.84S
BROWNWOOD      CLEAR     77  66  69 S9        29.81R
COLEMAN        CLEAR     76  64  65 S9        29.81S
SONORA         CLEAR     77  64  65 VRB7      29.89S
OZONA          FAIR      73  63  68 S6        29.88R
BRADY          CLEAR     77  66  69 S7        29.83S
$$

TEXAS PANHANDLE/OKLAHOMA PANHANDLE

CITY           SKY/WX    TMP DP  RH WIND       PRES   REMARKS
AMARILLO       CLEAR     59  46  62 SW9       29.81F
BORGER         CLEAR     67  42  40 SW6       29.77F
CANADIAN       CLEAR     59  47  66 SW3       29.72F
DALHART        CLEAR     57  45  64 W9        29.84R
DUMAS          CLEAR     59  43  53 SW10      29.79F
GUYMON         NOT AVBL
HEREFORD       CLEAR     55  50  82 SW5       29.84S
PAMPA          CLEAR     61  43  51 SW10      29.78F
PERRYTON       CLEAR     59  38  46 SE3       29.75S
$$

SOUTHERN PANHANDLE/SOUTH PLAINS/ROLLING PLAINS

CITY           SKY/WX    TMP DP  RH WIND       PRES   REMARKS
LUBBOCK        CLEAR     62  49  62 SW3       29.82S
SNYDER         CLEAR     74  64  69 S9        29.81S
CHILDRESS      CLEAR     70  59  68 SW9       29.73F
SEMINOLE       CLEAR     64  48  56 SW8       29.87R
$$

PERMIAN BASIN

CITY           SKY/WX    TMP DP  RH WIND       PRES   REMARKS
MIDLAND        CLEAR     77  63  61 S9        29.84S
ODESSA         CLEAR     75  63  66 S13       29.85S
WINK           CLEAR     72  50  45 CALM      29.82S
$$

FAR WEST/SOUTHWEST MOUNTAINS/TRANS PECOS

CITY           SKY/WX    TMP DP  RH WIND       PRES   REMARKS
ALPINE         CLEAR     62  46  55 CALM      30.01S
DRYDEN           N/A     75  66  73 N7        29.82S
EL PASO        CLEAR     70  33  25 CALM      29.93R
FORT STOCKTON  CLEAR     70  63  78 S8        29.86S
GUADALUPE PASS CLEAR     63  37  38 SW20      30.00F
MARFA          CLEAR     55  45  67 N9        30.01S
PECOS          CLEAR     65  51  62 SE3       29.82F
$$

DALLAS/FORT WORTH METROPLEX

CITY           SKY/WX    TMP DP  RH WIND       PRES   REMARKS
DFW AIRPORT    PTCLDY    82  69  64 S17       29.76S
FTW MEACHAM    CLEAR     82  67  60 S14       29.76S
DAL-EXECUTIVE  CLEAR     82  69  64 S10G20    29.78S
GRAND PRAIRIE  CLEAR     81  67  63 SE9       29.79S
ADDISON        CLEAR     83  67  60 S9        29.79S
MESQUITE       CLEAR     78  68  71 S9        29.79S
LANCASTER      CLEAR     78  66  67 SE5       29.80R
$$

NORTH CENTRAL TEXAS

CITY           SKY/WX    TMP DP  RH WIND       PRES   REMARKS
SHRMAN/DENISON CLEAR     80  66  62 SE14      29.77F
GAINESVILLE    PTCLDY    76  67  72 SE10      29.77F
BRIDGEPORT     CLOUDY    81  62  52 S9G16     29.77S
DENTON         CLEAR     81  67  62 S10       29.76S
WAXAHACHIE     CLEAR     79  70  74 S9        29.80S
GRANBURY       CLEAR     80  66  61 SE8       29.78S
$$

WESTERN NORTH TEXAS

CITY           SKY/WX    TMP DP  RH WIND       PRES   REMARKS
WICHITA FALLS  PTCLDY    83  66  56 S20G28    29.71R
VERNON         PTCLDY    76  68  75 SE7       29.72F
BRECKENRIDGE     N/A     82  64  54 S13G20    29.76R
COMANCHE       CLEAR     79  64  60 S12G18    29.80S
$$

CENTRAL AND SOUTH CENTRAL TEXAS

CITY           SKY/WX    TMP DP  RH WIND       PRES   REMARKS
AUSTIN/BERGSTM CLOUDY    78  73  84 S12       29.82S
WACO           CLEAR     80  71  74 S17       29.79S
HILLSBORO      CLEAR     80  69  67 S15       29.79S
TEMPLE         CLEAR     79  68  69 S18       29.80S
KILLEEN-GRAY   CLEAR     79  70  73 SE13      29.80F
FORT HOOD      CLEAR     80  71  74 SE9       29.81S
GEORGETOWN     CLEAR     79  72  78 S10G21    29.82S
LAGO VISTA     FAIR      77  71  82 S8G17     29.85S
SAN MARCOS     CLOUDY    79  72  78 S15       29.84S
NEW BRAUNFELS  CLOUDY    78  74  87 S9        29.82F
RANDOLPH AFB   CLOUDY    78  74  87 S8        29.84S
SAN ANTONIO    CLOUDY    80  75  84 S14       29.84S
STINSON        CLOUDY    79  75  87 S9        29.82S
PLEASANTON     NOT AVBL
LA GRANGE      CLOUDY    80  78  94 S5        29.82S
GIDDINGS       MOCLDY    78  74  88 S9        29.87S
$$

EAST TEXAS

CITY           SKY/WX    TMP DP  RH WIND       PRES   REMARKS
PARIS          CLEAR     73  64  73 SE9       29.81S
CLARKSVILLE    NOT AVBL
TYLER          CLEAR     77  73  87 S8        29.82S
LONGVIEW       CLEAR     76  72  87 S8        29.82F
PALESTINE      CLEAR     78  74  87 SE7       29.84S
NACOGDOCHES    MOCLDY    75  73  94 S8        29.86S
$$

TEXAS HILL COUNTRY AND EDWARDS PLATEAU

CITY           SKY/WX    TMP DP  RH WIND       PRES   REMARKS
LLANO          CLEAR     77  66  69 S5        29.85S
HORSESHOE BAY  FAIR      76  68  76 S3        29.83R
KERRVILLE      CLOUDY    76  72  86 S7        29.87S
FREDERICKSBRG  CLEAR     74  67  78 S6        29.87R
ROCKSPRINGS    CLEAR     75  68  78 SE13      29.90S
HONDO          CLEAR     79  73  82 S10       29.85S
UVALDE         CLEAR     78  73  84 SE7       29.84S
DEL RIO        CLEAR     79  69  71 SE8       29.79S
$$

SOUTHEAST TEXAS

CITY           SKY/WX    TMP DP  RH WIND       PRES   REMARKS
COLLEGE STN    CLEAR     77  73  87 S8        29.83S
CALDWELL       CLOUDY    77  75  94 S10       29.86S
CROCKETT       CLEAR     79  75  89 S6        29.87S
BRENHAM        MOCLDY    78  75  92 S6        29.84F
HUNTSVILLE     CLEAR     77  73  87 S6        29.85S
CONROE         PTCLDY    75  73  93 SE3       29.86S
HOUSTON BUSH   PTCLDY    79  76  90 S5        29.85S
HOUSTON HOBBY  PTCLDY    79  77  94 SE5       29.84F
PERLAND        CLEAR     81  78  91 S6        29.86S
WHARTON        CLEAR     78  77  96 S7        29.85S FOG
$$

THE UPPER TEXAS COAST

CITY           SKY/WX    TMP DP  RH WIND       PRES   REMARKS
ORANGE         CLOUDY   N/A N/A N/A S5        29.88F
PORT ARTHUR    CLEAR     79  77  94 S6        29.86S
GALVESTON      CLEAR     82  80  94 S12       29.87S
ANGLETON       PTCLDY    79  78  97 S9        29.85F
BAY CITY       PTCLDY    81  79  95 S5        29.84F FOG
$$

TEXAS COASTAL BEND, RIO GRANDE PLAINS DEEP SOUTH TEXAS

CITY           SKY/WX    TMP DP  RH WIND       PRES   REMARKS
VICTORIA       PTCLDY    81  79  94 S9        29.83F FOG
BEEVILLE       CLOUDY    80  79  98 S10       29.83S FOG
ROCKPORT       MOCLDY    82  78  88 S9        29.82F
PORT ARANSAS   PTCLDY    82  79  90 S10G16    29.83S
PORT LAVACA      N/A     79  78  95 S8        29.83S FOG
CORPUS CHRISTI PTCLDY    81  78  91 S9        29.82F
KINGSVILLE NAS CLEAR     80  80 100 S7        29.82S
COTULLA        CLEAR     81  75  82 SE9       29.81S
LAREDO         CLEAR     82  76  82 SE13      29.82F
BROWNSVILLE    CLEAR     81  81 100 SE10      29.83F FOG
PORT ISABEL    PTCLDY    83  79  88 S14       29.82F
HEBBRONVILLE   MOCLDY    78  75  90 SE8       29.84S
MCALLEN        CLEAR     80  78  94 SE9       29.83S FOG
WESLACO        CLEAR     79  76  89 S6        29.82F FOG
FALFURRIAS     CLEAR     78  76  95 SE5       29.82S
EDINBURG       CLEAR     81  77  88 SE7       29.82F FOG
$$




U.S. Dept. of Commerce
NOAA National Weather Service
1325 East West Highway
Silver Spring, MD 20910
E-mail: w-nws.webmaster@noaa.gov
Page last modified: May 16, 2007
NATIONAL WEATHER SERVICE: for Safety, for Work, for Fun - FOR LIFE